Change the Weather History Date:

Friday, January 20, 2012

  Actual Average Record
Temperature  
Mean Temperature 1 °F 17 °F  
Max Temperature 10 °F 26 °F 57 °F (1944)
Min Temperature -9 °F 7 °F -24 °F (1954)
Degree Days  
Heating Degree Days 64 48  
Month to date heating degree days 825 978  
Since 1 July heating degree days 3451 4111  
Cooling Degree Days 0 0  
Month to date cooling degree days 0 0  
Year to date cooling degree days 0 0  
Moisture  
Dew Point -1 °F    
Average Humidity 79    
Maximum Humidity 85    
Minimum Humidity 58    
Precipitation  
Precipitation 0.46 in 0.02 in 0.49 in (1937)
Month to date precipitation 0.56 0.36  
Year to date precipitation 0.56 0.36  
Snow  
Snow 4.60 in 0.20 in 5.30 in (1998)
Month to date snowfall 6.2 4.9  
Since 1 July snowfall 6.7 21.8  
Snow Depth 3.00 in    
Sea Level Pressure  
Sea Level Pressure 30.07 in    
Wind  
Wind Speed 7 mph (ESE)    
Max Wind Speed 16 mph    
Max Gust Speed 20 mph    
Visibility 5 miles    
Events Snow    
T = Trace of Precipitation, MM = Missing Value Source: NWS Daily Summary

Daily Weather History Graph

Daily Weather History Graph

Search for Another Location

Airport or City:

Trip Planner

Search our weather history database for the weather conditions in past years. The results will help you decide how hot, cold, wet, or windy it might be!

Date:

Astronomy

Jan. 20, 2012 Rise Set
Actual Time 7:54 AM CST 5:21 PM CST
Civil Twilight 7:23 AM CST 5:53 PM CST
Nautical Twilight 6:47 AM CST 6:28 PM CST
Astronomical Twilight 6:13 AM CST 7:02 PM CST
Moon 5:35 AM CST (1/20) 2:52 PM CST (1/20)
Length of Visible Light 10h 30m
Length of Day
9h 27m
Waning Crescent, 8% of the Moon is Illuminated
Jan 20
Waning Crescent
Jan 23
New
Jan 30
First Quarter
Feb 7
Full
Feb 14
Last Quarter

Hourly Weather History & Observations

Time (CST) Temp. Windchill Dew Point Humidity Pressure Visibility Wind Dir Wind Speed Gust Speed Precip Events Conditions
12:56 AM 5.0 °F -10.0 °F -7.1 °F 58% 30.12 in 9.0 mi SE 10.4 mph - 0.00 in Snow Light Snow
1:33 AM 3.2 °F -10.3 °F -4.0 °F 72% 30.00 in 2.0 mi SE 8.1 mph - 0.00 in Snow Light Snow
1:41 AM 3.2 °F -13.9 °F -4.0 °F 72% 30.00 in 1.8 mi SE 12.7 mph - 0.00 in Snow Light Snow
1:56 AM 3.2 °F -12.2 °F -2.2 °F 78% 29.98 in 1.5 mi ESE 10.4 mph - N/A Snow Light Snow
2:09 AM 3.2 °F -11.3 °F -2.2 °F 78% 29.98 in 1.0 mi SE 9.2 mph - 0.01 in Snow Light Snow
2:13 AM 3.2 °F -12.2 °F -2.2 °F 78% 29.97 in 0.8 mi SE 10.4 mph - 0.01 in Snow Light Snow
2:30 AM 3.2 °F -13.9 °F -0.4 °F 85% 29.96 in 1.0 mi SE 12.7 mph - 0.03 in Snow Light Snow
2:37 AM 3.2 °F -12.2 °F -0.4 °F 85% 29.96 in 1.0 mi SE 10.4 mph - 0.04 in Snow Light Snow
2:56 AM 3.9 °F -12.2 °F -0.9 °F 80% 30.07 in 1.2 mi SE 11.5 mph - 0.05 in Snow Light Snow
3:11 AM 3.2 °F -12.2 °F -0.4 °F 85% 29.97 in 1.2 mi ESE 10.4 mph - 0.01 in Snow Light Snow
3:19 AM 3.2 °F -12.2 °F -0.4 °F 85% 29.98 in 1.0 mi ESE 10.4 mph - 0.02 in Snow Light Snow
3:23 AM 3.2 °F -13.1 °F -0.4 °F 85% 29.98 in 0.8 mi ESE 11.5 mph - 0.02 in Snow Light Snow
3:39 AM 3.2 °F -12.2 °F -0.4 °F 85% 29.97 in 0.5 mi ESE 10.4 mph - 0.05 in Snow Snow
3:56 AM 3.9 °F -13.0 °F -0.9 °F 80% 30.05 in 0.5 mi ESE 12.7 mph - 0.08 in Snow Snow
4:56 AM 3.9 °F -12.2 °F -0.9 °F 80% 30.04 in 0.8 mi ESE 11.5 mph - 0.12 in Snow Light Snow
5:56 AM 3.9 °F -11.3 °F -0.9 °F 80% 30.04 in 0.5 mi ESE 10.4 mph - 0.08 in Snow Snow
6:54 AM 3.2 °F -13.1 °F -0.4 °F 85% 29.92 in 0.8 mi ESE 11.5 mph - 0.06 in Snow Light Snow
6:56 AM 3.9 °F -12.2 °F -0.9 °F 80% 30.03 in 0.8 mi ESE 11.5 mph - 0.07 in Snow Light Snow
7:03 AM 3.2 °F -13.9 °F -0.4 °F 85% 29.92 in 1.0 mi ESE 12.7 mph - 0.00 in Snow Light Snow
7:17 AM 3.2 °F -11.3 °F -0.4 °F 85% 29.94 in 0.8 mi ESE 9.2 mph - 0.01 in Snow Light Snow
7:19 AM 3.2 °F -12.2 °F -0.4 °F 85% 29.94 in 1.0 mi ESE 10.4 mph - 0.01 in Snow Light Snow
7:24 AM 3.2 °F -12.2 °F -0.4 °F 85% 29.94 in 1.0 mi ESE 10.4 mph - 0.01 in Snow Light Snow
7:56 AM 3.2 °F -11.3 °F -0.4 °F 85% 29.96 in 1.5 mi ESE 9.2 mph - N/A Snow Light Snow
8:51 AM 5.0 °F -8.1 °F -0.4 °F 78% 29.97 in 4.0 mi SE 8.1 mph - 0.01 in Snow Light Snow
8:56 AM 5.0 °F -8.1 °F -0.0 °F 80% 30.09 in 4.0 mi SE 8.1 mph - 0.02 in Snow Light Snow
9:29 AM 5.0 °F -10.0 °F -0.4 °F 78% 29.99 in 2.5 mi ESE 10.4 mph - 0.00 in Snow Light Snow
9:56 AM 5.0 °F -9.1 °F -0.0 °F 80% 30.11 in 3.0 mi East 9.2 mph - 0.00 in Snow Light Snow
10:15 AM 6.8 °F -5.9 °F -0.4 °F 72% 30.01 in 3.0 mi East 8.1 mph - 0.00 in Snow Light Snow
10:56 AM 7.0 °F -5.7 °F -0.0 °F 73% 30.12 in 9.0 mi ESE 8.1 mph - 0.00 in   Mostly Cloudy
11:56 AM 8.1 °F -0.5 °F 1.0 °F 73% 30.12 in 10.0 mi ESE 4.6 mph - N/A   Mostly Cloudy
12:56 PM 8.1 °F -0.5 °F 1.9 °F 76% 30.13 in 10.0 mi Variable 4.6 mph - N/A   Overcast
1:56 PM 9.0 °F -0.9 °F 1.9 °F 73% 30.13 in 10.0 mi NNE 5.8 mph - N/A   Mostly Cloudy
2:31 PM 8.6 °F -4.7 °F 1.4 °F 73% 30.04 in 10.0 mi NNE 9.2 mph - N/A   Overcast
2:56 PM 9.0 °F -4.2 °F 1.9 °F 73% 30.16 in 9.0 mi NNE 9.2 mph - N/A   Overcast
3:56 PM 8.1 °F -6.2 °F 1.0 °F 73% 30.19 in 10.0 mi NE 10.4 mph - N/A   Mostly Cloudy
4:56 PM 8.1 °F -0.5 °F 1.0 °F 73% 30.22 in 10.0 mi NNE 4.6 mph - N/A   Mostly Cloudy
5:10 PM 6.8 °F -2.0 °F -0.4 °F 72% 30.12 in 10.0 mi North 4.6 mph - N/A   Mostly Cloudy
5:56 PM 3.0 °F -6.4 °F -2.0 °F 80% 30.25 in 10.0 mi North 4.6 mph - N/A   Scattered Clouds
6:56 PM 5.0 °F -2.1 °F -0.0 °F 80% 30.26 in 10.0 mi North 3.5 mph - N/A   Mostly Cloudy
7:56 PM 6.1 °F - -0.0 °F 76% 30.28 in 10.0 mi Calm Calm - N/A   Mostly Cloudy
8:56 PM 1.0 °F -6.7 °F -2.9 °F 83% 30.29 in 10.0 mi North 3.5 mph - N/A   Scattered Clouds
9:56 PM -2.0 °F - -6.0 °F 83% 30.31 in 10.0 mi Calm Calm - N/A   Partly Cloudy
10:56 PM -6.0 °F - -11.0 °F 79% 30.29 in 6.0 mi Calm Calm - N/A   Haze
11:56 PM -7.6 °F - -11.2 °F 84% 30.18 in 10.0 mi Calm Calm - N/A   Scattered Clouds